Notices

What's New in latest Release from April 7th, 2021:

- Updated Glossary, including Speed of Maximum Gust, and Total Hourly Precipitation

- Updated national and regional climate services offices contacts and prices information

- Addition of station inventory lists for 1981-2010, 1971-2000, and 1961-1990 Normals.

If you haven't already, please take our survey and provide feedback about our website: https://eccc.sondage-survey.ca/f/LanguageSelection.aspx?s=442ca660-fcf1-47c0-95a9-59707d6fd709

Hourly Data Report for April 09, 2021

CORNER BROOK
NEWFOUNDLAND
Current Station Operator: ECCC - MSC

48°56'00.000" N
57°55'00.000" W
151.80 m
8401298
71973
WKB

Download Data

Hourly Data (April 2021)
Hourly Data Report for April 9, 2021
TIME
LST
Temp Definition
°C
Dew Point Definition
°C
Rel Hum Definition
%
Precip. Amount Definition
mm

Wind Dir Definition
10's deg

Wind Spd Definition
km/h
Visibility Definition
km
Stn Press Definition
kPa
Hmdx Definition


Wind Chill Definition


Weather Definition


00:30 3.4 2.0 91 0.0 4 6   99.94     LegendNANA
01:30 3.3 1.9 91 0.0 3 4   99.92     LegendNANA
02:30 2.7 1.6 92 0.0 7 4   99.90     LegendNANA
03:30 2.5 1.4 93 0.0 36 2   99.87     LegendNANA
04:30 2.0 1.0 93 0.0 12 2   99.84     LegendNANA
05:30 1.5 0.6 94 0.0   0   99.84     LegendNANA
06:30 0.8 0.0 94 0.0 12 4   99.86     LegendNANA
07:30 2.5 1.5 93 0.0 31 5   99.88     LegendNANA
08:30 4.6 2.9 89 0.0 28 3   99.85     LegendNANA
09:30 9.1 4.3 72 0.0 28 5   99.83     LegendNANA
10:30 10.8 4.4 64 0.0 32 13   99.82     LegendNANA
11:30 11.5 4.6 63 0.0 32 17   99.75     LegendNANA
12:30 12.2 5.4 63 0.0 30 9   99.65     LegendNANA
13:30 13.2 5.3 58 0.0 29 15   99.56     LegendNANA
14:30 13.5 4.7 55 0.0 32 13   99.51     LegendNANA
15:30 11.4 4.1 61 0.0 31 12   99.51     LegendNANA
16:30 9.5 3.4 66 0.0 30 13   99.52     LegendNANA
17:30 7.5 2.7 71 0.0 31 14   99.51     LegendNANA
18:30 7.7 2.2 68 0.0 29 13   99.51     LegendNANA
19:30 5.3 1.5 77 0.0 31 10   99.52     LegendNANA
20:30 4.5 1.8 83 0.0 30 7   99.53     LegendNANA
21:30 4.0 1.6 84 0.0 30 15   99.51     LegendNANA
22:30 2.6 1.0 89 0.0 30 12   99.49     LegendNANA
23:30 1.8 0.6 91 0.0 30 9   99.46     LegendNANA

Notes on Data Quality.

Legend

  • E = Estimated
  • M = Missing
  • NA = Not Available*
  • [empty] = Indicates an unobserved value
Date modified: